Asheville, NC

10:04 PM EDT on June 28, 2017 (GMT -0400)
Asheville Regional

Weather History for KAVL - April, 2013

Change the Weather History Date:

Thursday, April 25, 2013

  Actual Average Record
Temperature  
Mean Temperature 54 °F 58 °F  
Max Temperature 66 °F 70 °F 88 °F (1960)
Min Temperature 42 °F 45 °F 32 °F (1969)
Degree Days  
Heating Degree Days 11 8  
Month to date heating degree days 240 267  
Since 1 July heating degree days 3891 4039  
Cooling Degree Days 0 0  
Month to date cooling degree days 5 0  
Year to date cooling degree days 5 1  
Growing Degree Days 4 (Base 50)    
Moisture  
Dew Point 29 °F    
Average Humidity 49    
Maximum Humidity 86    
Minimum Humidity 12    
Precipitation  
Precipitation 0.00 in 0.12 in 2.06 in (1908)
Month to date precipitation 3.09 2.77  
Year to date precipitation 18.55 14.03  
Snow  
Snow 0.00 in 0.00 in T in (1910)
Month to date snowfall 0.0 0.7  
Since 1 July snowfall 0.5 9.9  
Snow Depth 0.00 in    
Sea Level Pressure  
Sea Level Pressure 30.22 in    
Wind  
Wind Speed 12 mph (NNW)    
Max Wind Speed 24 mph    
Max Gust Speed 31 mph    
Visibility 10 miles    
Events      
T = Trace of Precipitation, MM = Missing Value Source: NWS Daily Summary

Daily Weather History Graph

Daily Weather History Graph

Search for Another Location

Airport or City:

Trip Planner

Search our weather history database for the weather conditions in past years. The results will help you decide how hot, cold, wet, or windy it might be!

Date:

Astronomy

Apr. 25, 2013 Rise Set
Actual Time 6:45 AM EDT 8:11 PM EDT
Civil Twilight 6:18 AM EDT 8:38 PM EDT
Nautical Twilight 5:46 AM EDT 9:10 PM EDT
Astronomical Twilight 5:12 AM EDT 9:44 PM EDT
Moon 8:22 PM EDT (4/25) 6:26 AM EDT (4/25)
Length of Visible Light 14h 20m
Length of Day
13h 26m
Full, 100% of the Moon is Illuminated
Apr 25
Full
Apr 25
Full
May 2
Last Quarter
May 9
New
May 18
First Quarter

Hourly Weather History & Observations

Time (EDT) Temp. Windchill Dew Point Humidity Pressure Visibility Wind Dir Wind Speed Gust Speed Precip Events Conditions
12:54 AM 48.9 °F - 44.1 °F 83% 30.11 in 10.0 mi North 16.1 mph 28.8 mph N/A   Overcast
1:54 AM 46.9 °F - 41.0 °F 80% 30.12 in 10.0 mi North 17.3 mph 26.5 mph N/A   Overcast
2:54 AM 46.0 °F 39.6 °F 39.9 °F 79% 30.11 in 10.0 mi North 15.0 mph - N/A   Overcast
3:54 AM 45.0 °F 36.2 °F 39.0 °F 80% 30.13 in 10.0 mi NNW 24.2 mph 28.8 mph N/A   Overcast
4:54 AM 44.1 °F 36.5 °F 37.0 °F 76% 30.16 in 10.0 mi NNW 17.3 mph 20.7 mph N/A   Overcast
5:54 AM 44.1 °F 38.6 °F 35.1 °F 71% 30.18 in 10.0 mi North 10.4 mph - N/A   Overcast
6:54 AM 42.1 °F 34.9 °F 33.1 °F 70% 30.20 in 10.0 mi North 13.8 mph 21.9 mph N/A   Mostly Cloudy
7:10 AM 42.8 °F 36.2 °F 33.8 °F 70% 30.23 in 10.0 mi NNW 12.7 mph - N/A   Partly Cloudy
7:54 AM 44.1 °F 40.8 °F 34.0 °F 68% 30.22 in 10.0 mi Variable 5.8 mph - N/A   Clear
8:54 AM 46.9 °F - 35.1 °F 63% 30.22 in 10.0 mi NW 5.8 mph - N/A   Clear
9:54 AM 50.0 °F - 35.1 °F 57% 30.22 in 10.0 mi North 10.4 mph - N/A   Clear
10:54 AM 53.1 °F - 36.0 °F 52% 30.24 in 10.0 mi North 10.4 mph - N/A   Clear
11:54 AM 55.9 °F - 32.0 °F 40% 30.25 in 10.0 mi North 10.4 mph 20.7 mph N/A   Clear
12:54 PM 60.1 °F - 32.0 °F 35% 30.24 in 10.0 mi North 15.0 mph - N/A   Clear
1:54 PM 63.0 °F - 17.1 °F 17% 30.24 in 10.0 mi NNW 10.4 mph 17.3 mph N/A   Clear
2:54 PM 66.0 °F - 23.0 °F 20% 30.23 in 10.0 mi North 10.4 mph - N/A   Clear
3:54 PM 66.0 °F - 12.9 °F 13% 30.21 in 10.0 mi North 12.7 mph 18.4 mph N/A   Clear
4:54 PM 64.9 °F - 19.0 °F 17% 30.20 in 10.0 mi North 12.7 mph - N/A   Clear
5:54 PM 64.0 °F - 21.0 °F 19% 30.21 in 10.0 mi NNW 13.8 mph - N/A   Clear
6:54 PM 62.1 °F - 17.1 °F 18% 30.24 in 10.0 mi North 16.1 mph 21.9 mph N/A   Clear
7:54 PM 59.0 °F - 18.0 °F 20% 30.25 in 10.0 mi North 12.7 mph 19.6 mph N/A   Clear
8:54 PM 55.9 °F - 19.0 °F 24% 30.27 in 10.0 mi North 10.4 mph - N/A   Clear
9:54 PM 53.1 °F - 25.0 °F 34% 30.30 in 10.0 mi North 6.9 mph - N/A   Clear
10:54 PM 50.0 °F - 28.9 °F 44% 30.32 in 10.0 mi NNW 8.1 mph - N/A   Clear
11:54 PM 50.0 °F - 28.9 °F 44% 30.32 in 10.0 mi North 5.8 mph - N/A   Clear